User: anonymous   Login
Location: Ertinghausen
(51.6624°N, 9.7874°E)
Time: 13:58:54
(UTC+00:00)
Language:

Cosmos 2237 Rocket - Orbit

View from above orbital plane
View from above orbital plane
View from above satellite
View from above satellite

Ground track
Ground track

The orbit data is extracted from the following two-line orbital elements,

1 22566U 93016B   24195.88593976  .00000140  00000-0  96450-4 0  9999
2 22566  71.0084  43.2122 0009861 174.6227 185.5004 14.15146792616758
Epoch (UTC): 13 July 2024 21:15:45
Eccentricity: 0.0009861
inclination: 71.0084°
perigee height: 834 km
apogee height: 849 km
right ascension of ascending node: 43.2122°
argument of perigee: 174.6227°
revolutions per day: 14.15146792
mean anomaly at epoch: 185.5004°
orbit number at epoch: 61675

The dashed part of the orbit path shows where the satellite is in the earth's shadow,  

DLR